Weather History for Mount Ida, AR

Change the Weather History Date:

Sunday, May 10, 2009

  Actual Average (KHOT) Record (KHOT)
Temperature  
Mean Temperature 58 °F -  
Max Temperature 60 °F 79 °F 90 °F (1987)
Min Temperature 57 °F 53 °F 41 °F (1990)
Degree Days  
Heating Degree Days 6    
Growing Degree Days 8 (Base 50)    
Moisture  
Dew Point 57 °F    
Average Humidity 95    
Maximum Humidity 100    
Minimum Humidity 88    
Precipitation  
Precipitation 1.80 in - - ()
Sea Level Pressure  
Sea Level Pressure 30.09 in    
Wind  
Wind Speed 3 mph (East)    
Max Wind Speed 10 mph    
Max Gust Speed 20 mph    
Visibility 6 miles    
Events Fog , Rain    
Averages and records for this station are not official NWS values.
T = Trace of Precipitation, MM = Missing Value Source: NWS Daily Summary

Daily Weather History Graph

Daily Weather History Graph

Search for Another Location

Airport:

Trip Planner

Search our weather history database for the weather conditions in past years. The results will help you decide how hot, cold, wet, or windy it might be!

Date:

Astronomy

May. 10, 2009 Rise Set
Actual Time 6:15 AM CDT 8:06 PM CDT
Civil Twilight 5:47 AM CDT 8:33 PM CDT
Nautical Twilight 5:14 AM CDT 9:07 PM CDT
Astronomical Twilight 4:39 AM CDT 9:42 PM CDT
Moon 10:01 PM CDT (5/10) 6:53 AM CDT (5/10)
Length of Visible Light 14h 45m
Length of Day
13h 50m
Full, 98% of the Moon is Illuminated
May 10
Full
May 17
Last Quarter
May 24
New
May 30
First Quarter
Jun 7
Full

Hourly Weather History & Observations

Time (CDT) Temp. Dew Point Humidity Pressure Visibility Wind Dir Wind Speed Gust Speed Precip Events Conditions
12:53 AM 59.0 °F 57.9 °F 96% 30.06 in 10.0 mi Calm Calm - N/A   Overcast
1:53 AM 60.1 °F 59.0 °F 96% 30.05 in 8.0 mi Calm Calm - 0.00 in Rain Light Rain
2:53 AM 59.0 °F 57.9 °F 96% 30.05 in 10.0 mi Calm Calm - 0.01 in   Overcast
3:53 AM 59.0 °F 57.9 °F 96% 30.06 in 10.0 mi Calm Calm - 0.00 in Rain Light Rain
4:53 AM 59.0 °F 57.9 °F 96% 30.07 in 10.0 mi Calm Calm - 0.06 in Rain Light Rain
5:53 AM 57.9 °F 55.9 °F 93% 30.05 in 10.0 mi East 6.9 mph - 0.08 in   Overcast
6:18 AM 57.2 °F 55.4 °F 94% 30.13 in 2.5 mi NW 6.9 mph - 0.05 in Rain Heavy Rain
6:22 AM 57.2 °F 55.4 °F 94% 30.14 in 1.5 mi NNW 5.8 mph - 0.14 in Rain Heavy Rain
6:53 AM 57.0 °F 55.9 °F 96% 30.12 in 4.0 mi Variable 3.5 mph - 0.52 in Rain Heavy Rain
7:01 AM 57.2 °F 55.4 °F 94% 30.12 in 6.0 mi Calm Calm - 0.01 in Rain Rain
7:15 AM 57.2 °F 55.4 °F 94% 30.15 in 4.0 mi Calm Calm - 0.02 in Rain Heavy Rain
7:20 AM 57.2 °F 55.4 °F 94% 30.12 in 2.5 mi ESE 6.9 mph - 0.04 in Rain Heavy Rain
7:24 AM 57.2 °F 55.4 °F 94% 30.11 in 1.0 mi East 8.1 mph - 0.08 in Rain Heavy Rain
7:29 AM 57.2 °F 55.4 °F 94% 30.12 in 0.8 mi ESE 6.9 mph - 0.19 in Rain Heavy Rain
7:36 AM 57.2 °F 55.4 °F 94% 30.12 in 1.0 mi Variable 4.6 mph - 0.27 in Rain Heavy Rain
7:48 AM 57.2 °F 55.4 °F 94% 30.11 in 3.0 mi Variable 3.5 mph - 0.32 in Rain Rain
7:53 AM 57.0 °F 57.0 °F 100% 30.11 in 5.0 mi Variable 4.6 mph - 0.33 in Rain Light Rain
8:53 AM 57.9 °F 57.0 °F 97% 30.12 in 10.0 mi ESE 4.6 mph - 0.00 in   Overcast
9:53 AM 59.0 °F 57.0 °F 93% 30.11 in 10.0 mi East 4.6 mph - 0.06 in   Overcast
10:37 AM 59.0 °F 57.2 °F 94% 30.11 in 10.0 mi Variable 5.8 mph - N/A   Overcast
10:53 AM 60.1 °F 57.9 °F 93% 30.10 in 10.0 mi East 4.6 mph - N/A   Overcast
11:17 AM 60.8 °F 57.2 °F 88% 30.10 in 10.0 mi Variable 6.9 mph - N/A   Overcast
11:37 AM 59.0 °F 57.2 °F 94% 30.11 in 10.0 mi Variable 3.5 mph - N/A   Overcast
11:53 AM 59.0 °F 57.0 °F 93% 30.11 in 10.0 mi Variable 3.5 mph - N/A   Overcast
12:03 PM 59.0 °F 57.2 °F 94% 30.09 in 10.0 mi East 4.6 mph - N/A   Overcast
12:53 PM 59.0 °F 57.0 °F 93% 30.09 in 10.0 mi East 3.5 mph - 0.00 in   Overcast
1:29 PM 59.0 °F 57.2 °F 94% 30.11 in 6.0 mi Variable 3.5 mph - 0.03 in Rain Light Rain
1:53 PM 57.9 °F 57.0 °F 97% 30.13 in 5.0 mi Calm Calm - 0.05 in Rain Rain
2:08 PM 57.2 °F 57.2 °F 100% 30.14 in 4.0 mi Calm Calm - 0.03 in Rain Rain
2:13 PM 57.2 °F 57.2 °F 100% 30.16 in 2.5 mi WNW 5.8 mph - 0.05 in Rain Rain
2:20 PM 57.2 °F 57.2 °F 100% 30.17 in 2.0 mi Variable 4.6 mph - 0.06 in Rain Heavy Rain
2:25 PM 57.2 °F 57.2 °F 100% 30.15 in 0.8 mi Calm Calm - 0.09 in Rain Heavy Rain
2:35 PM 57.2 °F 55.4 °F 94% 30.11 in 0.5 mi SE 10.4 mph - 0.43 in Fog , Rain Heavy Rain
2:39 PM 57.2 °F 57.2 °F 100% 30.12 in 1.0 mi Variable 4.6 mph - 0.46 in Rain Heavy Rain
2:49 PM 57.2 °F 57.2 °F 100% 30.13 in 2.0 mi Calm Calm - 0.48 in Rain Heavy Rain
2:51 PM 57.2 °F 57.2 °F 100% 30.12 in 1.8 mi Calm Calm - 0.49 in Rain Heavy Rain
2:53 PM 57.0 °F 57.0 °F 100% 30.11 in 1.8 mi ESE 4.6 mph - 0.50 in Rain Heavy Rain
2:58 PM 57.2 °F 57.2 °F 100% 30.09 in 2.0 mi ESE 6.9 mph - 0.03 in Rain Heavy Rain
3:12 PM 57.2 °F 57.2 °F 100% 30.06 in 3.0 mi ESE 8.1 mph - 0.09 in Rain Rain
3:40 PM 59.0 °F 57.2 °F 94% 29.98 in 5.0 mi ESE 5.8 mph - 0.16 in Rain Rain
3:53 PM 59.0 °F 57.9 °F 96% 29.95 in 8.0 mi East 8.1 mph 19.6 mph 0.19 in Rain Light Rain
4:12 PM 60.8 °F 59.0 °F 94% 29.98 in 10.0 mi Variable 6.9 mph - 0.00 in Rain Light Rain
4:21 PM 59.0 °F 57.2 °F 94% 30.01 in 10.0 mi North 8.1 mph - 0.00 in   Mostly Cloudy
4:35 PM 59.0 °F 57.2 °F 94% 30.02 in 10.0 mi Variable 5.8 mph - 0.00 in   Overcast
4:53 PM 59.0 °F 57.9 °F 96% 30.02 in 10.0 mi Variable 3.5 mph - 0.00 in   Overcast
5:53 PM 59.0 °F 57.0 °F 93% 30.02 in 10.0 mi Calm Calm - N/A   Overcast
6:53 PM 59.0 °F 57.0 °F 93% 30.02 in 10.0 mi Calm Calm - N/A   Overcast
7:21 PM 59.0 °F 55.4 °F 88% 30.03 in 10.0 mi Calm Calm - N/A   Overcast
7:53 PM 57.9 °F 55.9 °F 93% 30.04 in 10.0 mi Calm Calm - N/A   Overcast
8:53 PM 57.9 °F 55.9 °F 93% 30.06 in 10.0 mi Calm Calm - N/A   Overcast
9:53 PM 57.9 °F 55.0 °F 90% 30.09 in 10.0 mi Variable 4.6 mph - N/A   Overcast
10:53 PM 57.9 °F 55.9 °F 93% 30.09 in 10.0 mi Calm Calm - N/A   Overcast
11:53 PM 57.9 °F 55.9 °F 93% 30.09 in 10.0 mi Calm Calm - N/A   Overcast